#timestamp,LO_Frequency,Hit,StdDev 
1583532955.3,286047013.1,P
1583532975.2,286047013.8,P
1583532995.0,286047011.2,P
1583532995.9,286047011.2,Y
1583533015.8,286046997.0,P
1583533035.6,286046999.2,N
1583533055.4,286046999.3,N
1583533075.3,286046999.2,N
1583533095.1,286046997.8,N
1583533115.9,286046995.0,N
1583533135.7,286046997.8,N
1583533155.5,286046995.3,N
1583533175.4,286046997.5,N
1583533195.2,286046995.2,N
1583533215.0,286046997.1,N
1583533215.9,286046997.1,N
1583533235.8,286046997.0,N
1583533255.6,286046996.5,N
1583533275.5,286046996.6,N
1583533295.3,286046999.0,N
1583533315.1,286046998.9,N
1583533335.9,286046997.0,N
1583533355.7,286046998.6,N
1583533375.5,286046998.5,N
1583533395.4,286046999.0,N
1583533415.2,286046997.5,N
1583533435.0,286046996.7,N
1583533436.0,286046996.7,N
1583533455.8,286046996.5,N
1583533475.6,286046999.3,N
1583533495.5,286046998.3,N
1583533515.3,286047000.5,N
1583533535.1,286047000.8,N
1583533555.9,286047000.3,N
1583533575.7,286047000.3,N
1583533595.6,286047000.9,N
1583533615.4,286047000.5,N
1583533635.2,286047000.4,N
1583533655.1,286047000.7,N
1583533656.0,286047000.7,N
1583533675.8,286046998.6,N
1583533695.6,286046998.2,N
1583533715.5,286047000.2,N
1583533735.3,286047000.4,N
1583533755.2,286046999.9,N
1583533775.9,286047000.6,N
1583533795.7,286046999.7,N
1583533815.6,286047002.8,N
1583533835.4,286047000.5,N
1583533855.2,286047002.7,N
1583533875.1,286047000.2,N
1583533876.0,286047000.2,N
1583533895.8,286046999.9,N
1583533915.7,286047002.8,N
1583533935.5,286047002.8,N
1583533955.3,286047001.3,N
1583533975.2,286047004.2,N
1583533995.9,286047003.8,N
1583534015.7,286047003.8,N
1583534035.6,286047003.4,N
1583534055.4,286047005.9,Y
1583534075.3,286047011.9,P
1583534095.1,286047001.7,N
1583534096.0,286047001.7,N
1583534115.8,286047002.3,N
1583534135.7,286047001.9,N
1583534155.5,286047001.6,N
1583534175.3,286047003.7,N
1583534195.2,286047003.2,N
1583534215.0,286047003.6,N
1583534215.9,286047003.6,N
1583534235.8,286047003.3,N
1583534255.6,286047003.8,N
1583534275.4,286047006.0,N
1583534295.3,286047005.8,N
1583534315.1,286047005.5,N
1583534335.8,286047005.6,N
1583534355.7,286047005.6,N
1583534375.5,286047003.0,N
1583534395.4,286047004.8,N
1583534415.2,286047007.1,N
1583534435.0,286047006.4,N
1583534435.9,286047006.4,N
1583534455.8,286047007.0,N
1583534475.6,286047007.5,Y
1583534495.4,286047001.6,P
1583534515.3,286047002.4,N
1583534535.1,286046999.8,N
1583534555.9,286046999.8,N
1583534575.7,286047000.1,N
1583534595.5,286047002.2,N
1583534615.4,286046999.7,N
1583534635.2,286047000.0,N
1583534655.1,286046999.9,N
1583534656.0,286046999.9,N
1583534675.8,286046999.8,N
1583534695.6,286047000.3,N
1583534715.5,286047002.8,N
1583534735.3,286047002.7,N
1583534755.1,286047003.2,N
1583534775.9,286047005.8,Y
1583534795.7,286047005.2,P
1583534815.6,286047005.1,N
1583534835.4,286047003.0,N
1583534855.2,286047003.4,N
1583534875.1,286047003.5,N
1583534876.0,286047003.5,N
1583534895.8,286047004.8,Y
1583534915.7,286047003.1,P
1583534935.5,286047005.5,P
1583534955.3,286047005.1,P
1583534975.2,286047007.3,Y
1583534995.0,286047004.3,P
1583534995.9,286047004.3,P
1583535015.7,286047003.8,P
1583535035.6,286047001.3,Y
1583535055.4,286046997.6,P
1583535075.3,286046995.6,N
1583535095.1,286046994.2,N
1583535096.0,286046994.2,N
1583535115.8,286046994.5,N
1583535135.7,286046995.0,N
1583535155.5,286046997.1,N
1583535175.3,286047000.9,N
1583535195.2,286047000.4,N
1583535215.0,286047004.3,N
1583535215.9,286047004.3,N
1583535235.8,286047004.0,N
1583535255.6,286047002.8,N
1583535275.4,286046999.8,N
1583535295.3,286046998.6,N
1583535315.1,286047000.8,N
1583535335.9,286047000.2,N
1583535355.7,286047002.8,N
1583535375.5,286047002.8,N
1583535395.4,286047000.3,N
1583535415.2,286047000.2,N
1583535435.0,286047002.6,N
1583535435.9,286047002.6,N
1583535455.8,286047001.9,N
1583535475.6,286047002.2,N
1583535495.5,286047000.8,N
1583535515.3,286046999.9,N
1583535535.1,286046999.0,N
1583535555.9,286046998.8,N
1583535575.7,286046999.2,N
1583535595.5,286046998.9,N
